STARLINK-11201, 60113

Orbit data source: Space-Track

STARLINK-11201, 60113 is a payload satellite owned by SpaceX/Seattle (US) in LEO that was launched on Mon, 24 Jun 2024 UTC via an FALCON 9 launch vehicle from the Air Force Western Test Range (AFWTR). Payload-class satellites include a variety of spacecraft equipped with specific instruments for various scientific and technological missions. These include communications satellites like Starlink; space stations such as the ISS; scientific satellites like the Hubble; Earth observation satellites from companies like Planet Labs, Umbra, and HawkEye 360; GPS; miniature CubeSats for education and research; and military/defense satellites.

Loading next visibility...
Identifier
60113, 2024-118A
Orbit
LEO
Country
Flag of USUS
Related business
Manufacturer
SpaceX/Seattle
Mission
Operational Commercial Communications
Bus & Motor
STARLINK V2MD, Unknown motor
Mass
960 kg wet, ~910 kg dry
Launch date (UTC)
2024-06-24 (1 year ago)
Launch vehicle
FALCON 9
Launch site
Air Force Western Test Range (AFWTR)
Object type
Payload
Rocket body
Debris
Shape & HBR
Box + 2 Pan, 18.1 m
Radar Cross Section
36.964 m², Large (>1 m²)

Expand to show TLE details & history
Last TLE update: 8 hours ago

TLE from 8 hours ago
0 STARLINK-11201
1 60113U 24118A   25296.70265409  .00006373  00000-0  57388-4 0  9998
2 60113  53.1565 176.8763 0001460 104.4617 255.6563 15.69723982 76478
Epoch: 2025-10-23T16:51Z
TLE epoch observation values (Epoch: 2025-10-23T16:51:49.313Z)
Latitude
-0.00001°
Longitude
-108.43729°
Altitude
360.845 km
Speed
7.694 km/s
True Right ascension
11h 47m 30s
True Declination
0° 00' 00"
Sunlit
Object was in daylight at epoch
Visualization orbit readout
Latitude
Unknown
Longitude
Unknown
Altitude
Unknown
Speed
Unknown
Apparent Right ascension
Unknown
Apparent Declination
Unknown
Sunlit
N/A
Visualization observer readout
Local Sidereal Time
20:00:52
Azimuth
Unknown
Elevation
Unknown
Doppler factor
Unknown
Orbital elements
Apogee altitude
360.932 km
Perigee altitude
358.964 km
Semi-major axis
6,738.085 km
Eccentricity
0.00015
Inclination
53.1565°
RAAN
176.8763°
Arg. of periapsis
104.4617°
True anomaly
255.64009°
Mean anomaly
255.6563°
Eccentric anomaly
255.6482°
Mean motion
3.92409 °/min
Orbital period
91.74 mins
BSTAR
0.000057388
Loading maneuver chart data...
Computing Atmospheric mass density...
Loading historical data...
Loading historical data...
Loading historical data...
Loading historical data...
Loading historical data...
Loading historical data...
Loading historical data...

Documentation

Showing up to 5 results
|